sat.trackr.live / text

‹ back to catalog

STARLINK-35498

NORAD 67017 · 2025-293Q

PAYLOAD ACTIVE UNKNOWN

§ Identity

Operator
Country
US
Launch date
2025-12-10
Launch site
AFWTR
Launch vehicle
Mass (kg)
RCS (m²)

Purposes: comms

External: N2YO · Heavens-Above · Gunter

§ Orbital elements

Epoch: 2026-09-20T14:06:57.047328Z

Period
96.11 min
Inclination
70.0015°
Eccentricity
0.0003632
Mean motion
14.98336942 rev/d
Perigee alt
569.5 km
Apogee alt
574.6 km
Semi-major
6,950.2 km
B*
2.4572e-4
RAAN
322.9715°
Arg perigee
270.6864°
Mean anomaly
89.3879°
Rev number
4,408

§ Raw data

STARLINK-354981 67017U 25293Q   26263.58816027  .00002841  00000+0  24572-3 0  99952 67017  70.0015 322.9715 0003632 270.6864  89.3879 14.98336942 44081

JSON: /api/v1/satellites/67017 · /tle

For live sub-satellite position, see the globe view (requires WebGL).

§ Visibility from observer

Set your observer location to see the next 7 days of passes ≥ 10°. The values pass through the URL so the page stays shareable.

No JS? Fill the form by hand. The geolocation button needs JavaScript.